Location: Gdynia
(54.5193°N, 18.5395°E)
Time: 19:19:07
(UTC+01:00)

ISS - Visible Passes

Search period start: 22 February 2018 00:00
Search period end: 04 March 2018 00:00
Orbit: 402 x 407 km, 51.6° (Epoch: 23 February)

Date Brightness Start Highest point End Pass type
(mag) Time Alt. Az. Time Alt. Az. Time Alt. Az.
01 Mar -1.1 05:26:23 10° S 05:28:24 15° SE 05:30:25 10° ESE visible
02 Mar -0.8 04:35:48 10° SSE 04:36:21 10° SE 04:36:54 10° SE visible
03 Mar -1.8 05:17:12 10° SSW 05:19:55 24° SSE 05:22:38 10° E visible
